This is the latest recevied weather packets stored in our database for station/object KA2FNK. If no packets are shown the sender has not sent any weather packets the latest 10 day(s).
| Time | Temp. | Humidity | Pressure | Rain* | Wind** | Luminosity | Snow |
|---|---|---|---|---|---|---|---|
| 1777214439 | 19.44° C | 70% | 1009.9 hPa | 0 mm | - | - | - |
| 1777214138 | 20° C | 69% | 1010 hPa | 0 mm | - | - | - |
| 1777213837 | 20° C | 68% | 1010.2 hPa | 0 mm | - | - | - |
| 1777213536 | 20° C | 70% | 1010.3 hPa | 0 mm | - | - | - |
| 1777213235 | 20° C | 72% | 1010.4 hPa | 0 mm | - | - | - |
| 1777212934 | 19.44° C | 71% | 1010.5 hPa | 0 mm | - | - | - |
| 1777212633 | 19.44° C | 71% | 1010.5 hPa | 0 mm | - | - | - |
| 1777212332 | 19.44° C | 72% | 1010.5 hPa | 0 mm | - | - | - |
| 1777212031 | 19.44° C | 72% | 1010.6 hPa | 0 mm | - | - | - |
| 1777211730 | 18.89° C | 74% | 1010.6 hPa | 0 mm | - | - | - |
| 1777211429 | 18.89° C | 74% | 1010.5 hPa | 0 mm | - | - | - |
| 1777211128 | 18.89° C | 75% | 1010.4 hPa | 0 mm | - | - | - |
| 1777210827 | 18.33° C | 76% | 1010.5 hPa | 0 mm | - | - | - |
| 1777210525 | 18.33° C | 75% | 1010.5 hPa | 0 mm | - | - | - |
| 1777210225 | 18.33° C | 75% | 1010.5 hPa | 0 mm | - | - | - |
| 1777209924 | 18.33° C | 75% | 1010.5 hPa | 0 mm | - | - | - |
| 1777209663 | 17.78° C | 76% | 1010.5 hPa | 0 mm | - | - | - |
| 1777209623 | 17.78° C | 76% | 1010.5 hPa | 0 mm | - | - | - |
| 1777209321 | 17.78° C | 76% | 1010.6 hPa | 0 mm | - | - | - |
| 1777209021 | 17.78° C | 77% | 1010.8 hPa | 0 mm | - | - | - |
| 1777208720 | 17.22° C | 78% | 1010.7 hPa | 0 mm | - | - | - |
| 1777208419 | 17.22° C | 78% | 1010.8 hPa | 0 mm | - | - | - |
| 1777208118 | 16.67° C | 79% | 1010.8 hPa | 0 mm | - | - | - |
| 1777207816 | 16.11° C | 80% | 1010.7 hPa | 0 mm | - | - | - |
| 1777207516 | 16.11° C | 81% | 1010.7 hPa | 0 mm | - | - | - |
* Rain latest hour (hover to see other rain measurements)
** Current wind speed in m/s (hover to see current wind gust speed)